When you browse on this site, cookies collect data to enhance your experience and personalize the content and advertising you see.
Visit our Privacy Policy to learn more. By continuing to use the site, you agree to this use of cookies and data.
  • In Portugal
  • List of Countries
  • For 7 days
  • Water Temperature
  • Weather Map
  • Weather Widgets
  • user-avatar
    Login

    Hourly Weather Belize

    Today, 9 December, Monday

    Time Temperature Precipitation Wind Pressure Humidity
    00:00 +20°C° 0 mm 3 mps 761 mmHg 97%
    01:00 +20°C° 0 mm 3 mps 761 mmHg 97%
    02:00 +20°C° 0 mm 2 mps 760 mmHg 97%
    03:00 +19°C° 0 mm 2 mps 760 mmHg 98%
    04:00 +19°C° 0 mm 2 mps 760 mmHg 98%
    05:00 +19°C° 0 mm 2 mps 761 mmHg 98%
    06:00 +19°C° 0 mm 2 mps 761 mmHg 98%
    07:00 +23°C° 0 mm 2 mps 761 mmHg 86%
    08:00 +25°C° 0 mm 3 mps 762 mmHg 75%
    09:00 +28°C° 0 mm 3 mps 762 mmHg 64%
    10:00 +29°C° 0 mm 3 mps 762 mmHg 59%
    11:00 +30°C° 0 mm 3 mps 761 mmHg 55%
    12:00 +31°C° 0 mm 3 mps 761 mmHg 51%
    13:00 +31°C° 0 mm 3 mps 760 mmHg 54%
    14:00 +30°C° 0 mm 3 mps 759 mmHg 57%
    15:00 +30°C° 0 mm 3 mps 759 mmHg 60%
    16:00 +28°C° 0 mm 3 mps 759 mmHg 67%
    17:00 +26°C° 0 mm 3 mps 759 mmHg 75%
    18:00 +24°C° 0 mm 3 mps 759 mmHg 83%
    19:00 +22°C° 0 mm 3 mps 760 mmHg 85%
    20:00 +22°C° 0 mm 3 mps 760 mmHg 87%
    21:00 +21°C° 0 mm 3 mps 760 mmHg 89%
    22:00 +21°C° 0 mm 3 mps 760 mmHg 91%
    23:00 +21°C° 0 mm 4 mps 760 mmHg 92%

    Tomorrow, 10 December, Tuesday

    Time Temperature Precipitation Wind Pressure Humidity
    00:00 +21°C° 0 mm 4 mps 760 mmHg 94%
    01:00 +21°C° 0 mm 4 mps 759 mmHg 93%
    02:00 +21°C° 0 mm 4 mps 759 mmHg 93%
    03:00 +21°C° 0 mm 4 mps 759 mmHg 93%
    04:00 +21°C° 0 mm 4 mps 759 mmHg 94%
    05:00 +21°C° 0 mm 4 mps 759 mmHg 96%
    06:00 +21°C° 0 mm 4 mps 760 mmHg 98%
    07:00 +23°C° 0 mm 5 mps 760 mmHg 89%
    08:00 +27°C° 0 mm 5 mps 761 mmHg 80%
    09:00 +30°C° 0 mm 5 mps 761 mmHg 70%
    10:00 +32°C° 0.1 mm 6 mps 761 mmHg 66%
    11:00 +32°C° 0.1 mm 6 mps 760 mmHg 63%
    12:00 +33°C° 0.1 mm 6 mps 760 mmHg 59%
    13:00 +33°C° 0 mm 5 mps 759 mmHg 61%
    14:00 +33°C° 0 mm 5 mps 759 mmHg 63%
    15:00 +32°C° 0 mm 5 mps 758 mmHg 65%
    16:00 +29°C° 0 mm 5 mps 758 mmHg 74%
    17:00 +28°C° 0 mm 5 mps 759 mmHg 83%
    18:00 +26°C° 0 mm 5 mps 759 mmHg 91%
    19:00 +26°C° 0 mm 5 mps 759 mmHg 93%
    20:00 +25°C° 0 mm 5 mps 760 mmHg 95%
    21:00 +25°C° 0 mm 5 mps 760 mmHg 97%
    22:00 +25°C° 0.1 mm 5 mps 760 mmHg 98%
    23:00 +25°C° 0.1 mm 5 mps 760 mmHg 98%

    Day after tomorrow, 11 December, Wednesday

    Time Temperature Precipitation Wind Pressure Humidity
    00:00 +25°C° 0.1 mm 5 mps 760 mmHg 98%
    01:00 +25°C° 0.1 mm 5 mps 760 mmHg 98%
    02:00 +25°C° 0.1 mm 5 mps 759 mmHg 98%
    03:00 +25°C° 0.1 mm 5 mps 759 mmHg 98%
    04:00 +25°C° 0.4 mm 5 mps 760 mmHg 98%
    05:00 +25°C° 0.4 mm 5 mps 760 mmHg 98%
    06:00 +25°C° 0.4 mm 5 mps 760 mmHg 98%
    07:00 +26°C° 0.9 mm 5 mps 761 mmHg 96%
    08:00 +27°C° 0.9 mm 5 mps 762 mmHg 94%
    09:00 +28°C° 0.9 mm 5 mps 762 mmHg 92%
    10:00 +29°C° 1.3 mm 5 mps 762 mmHg 91%
    11:00 +29°C° 1.3 mm 5 mps 762 mmHg 90%
    12:00 +29°C° 1.3 mm 5 mps 761 mmHg 89%
    13:00 +29°C° 1 mm 5 mps 761 mmHg 89%
    14:00 +29°C° 1 mm 4 mps 761 mmHg 88%
    15:00 +28°C° 1 mm 4 mps 760 mmHg 88%
    16:00 +27°C° 1 mm 4 mps 760 mmHg 91%
    17:00 +26°C° 1 mm 4 mps 761 mmHg 94%
    18:00 +25°C° 1 mm 4 mps 761 mmHg 97%
    19:00 +25°C° 1.2 mm 4 mps 761 mmHg 98%
    20:00 +23°C° 1.2 mm 4 mps 762 mmHg 98%
    21:00 +23°C° 1.2 mm 5 mps 762 mmHg 99%
    22:00 +23°C° 1.2 mm 4 mps 762 mmHg 99%
    23:00 +23°C° 1.2 mm 4 mps 762 mmHg 99%

    12 December, Thursday

    Time Temperature Precipitation Wind Pressure Humidity
    00:00 +22°C° 1.2 mm 4 mps 761 mmHg 99%
    01:00 +22°C° 1.3 mm 3 mps 761 mmHg 99%
    02:00 +22°C° 1.3 mm 3 mps 761 mmHg 99%
    03:00 +23°C° 1.3 mm 2 mps 761 mmHg 99%
    04:00 +22°C° 1.4 mm 3 mps 761 mmHg 99%
    05:00 +22°C° 1.4 mm 3 mps 761 mmHg 99%
    06:00 +22°C° 1.4 mm 3 mps 761 mmHg 99%
    07:00 +24°C° 1 mm 2 mps 762 mmHg 98%
    08:00 +25°C° 1 mm 2 mps 762 mmHg 98%
    09:00 +25°C° 1 mm 2 mps 763 mmHg 97%
    10:00 +26°C° 0.9 mm 2 mps 762 mmHg 95%
    11:00 +27°C° 0.9 mm 2 mps 762 mmHg 94%
    12:00 +28°C° 0.9 mm 2 mps 761 mmHg 93%
    13:00 +27°C° 0.5 mm 3 mps 761 mmHg 93%
    14:00 +27°C° 0.5 mm 3 mps 760 mmHg 93%
    15:00 +27°C° 0.5 mm 3 mps 760 mmHg 94%
    16:00 +26°C° 0.3 mm 3 mps 760 mmHg 95%
    17:00 +25°C° 0.3 mm 3 mps 760 mmHg 96%
    18:00 +24°C° 0.3 mm 3 mps 760 mmHg 98%
    19:00 +24°C° 0.3 mm 3 mps 760 mmHg 98%
    20:00 +24°C° 0.3 mm 3 mps 761 mmHg 98%
    21:00 +24°C° 0.3 mm 3 mps 761 mmHg 98%
    22:00 +22°C° 0.5 mm 3 mps 761 mmHg 99%
    23:00 +22°C° 0.5 mm 3 mps 761 mmHg 99%

    13 December, Friday

    Time Temperature Precipitation Wind Pressure Humidity
    00:00 +23°C° 0.5 mm 2 mps 760 mmHg 99%
    01:00 +23°C° 0.5 mm 2 mps 760 mmHg 99%
    02:00 +23°C° 0.5 mm 2 mps 760 mmHg 99%
    03:00 +23°C° 0.5 mm 2 mps 759 mmHg 99%
    04:00 +23°C° 0.3 mm 2 mps 759 mmHg 99%
    05:00 +21°C° 0.3 mm 2 mps 759 mmHg 99%
    06:00 +21°C° 0.3 mm 2 mps 760 mmHg 99%
    07:00 +22°C° 0.1 mm 3 mps 760 mmHg 98%
    08:00 +24°C° 0.1 mm 3 mps 760 mmHg 96%
    09:00 +26°C° 0.1 mm 3 mps 761 mmHg 94%
    10:00 +27°C° 0.3 mm 3 mps 760 mmHg 88%
    11:00 +29°C° 0.3 mm 3 mps 760 mmHg 81%
    12:00 +30°C° 0.3 mm 3 mps 759 mmHg 74%
    13:00 +30°C° 0.1 mm 3 mps 758 mmHg 78%
    14:00 +29°C° 0.1 mm 3 mps 758 mmHg 83%
    15:00 +29°C° 0.1 mm 3 mps 757 mmHg 87%
    16:00 +28°C° 0.1 mm 3 mps 757 mmHg 90%
    17:00 +26°C° 0.1 mm 3 mps 757 mmHg 94%
    18:00 +25°C° 0.1 mm 2 mps 758 mmHg 97%
    19:00 +24°C° 0 mm 2 mps 758 mmHg 97%
    20:00 +24°C° 0 mm 2 mps 758 mmHg 98%
    21:00 +24°C° 0 mm 1 mps 759 mmHg 98%
    22:00 +23°C° 0 mm 1 mps 759 mmHg 98%
    23:00 +23°C° 0 mm 1 mps 758 mmHg 98%

    14 December, Saturday

    Time Temperature Precipitation Wind Pressure Humidity
    00:00 +23°C° 0 mm 1 mps 758 mmHg 99%
    01:00 +23°C° 0 mm 2 mps 758 mmHg 99%
    02:00 +22°C° 0.1 mm 3 mps 757 mmHg 99%
    03:00 +21°C° 0.1 mm 4 mps 757 mmHg 99%
    04:00 +21°C° 0 mm 3 mps 757 mmHg 99%
    05:00 +21°C° 0 mm 3 mps 758 mmHg 98%
    06:00 +21°C° 0 mm 2 mps 758 mmHg 98%
    07:00 +23°C° 0 mm 2 mps 758 mmHg 94%
    08:00 +25°C° 0 mm 2 mps 759 mmHg 89%
    09:00 +26°C° 0 mm 2 mps 760 mmHg 84%
    10:00 +28°C° 0 mm 2 mps 759 mmHg 74%
    11:00 +30°C° 0 mm 2 mps 759 mmHg 64%
    12:00 +32°C° 0 mm 2 mps 758 mmHg 53%
    13:00 +32°C° 0 mm 2 mps 758 mmHg 53%
    14:00 +32°C° 0 mm 2 mps 757 mmHg 53%
    15:00 +33°C° 0 mm 3 mps 757 mmHg 53%
    16:00 +30°C° 0 mm 3 mps 757 mmHg 67%
    17:00 +27°C° 0 mm 3 mps 757 mmHg 80%
    18:00 +25°C° 0 mm 3 mps 758 mmHg 93%
    19:00 +25°C° 0 mm 3 mps 758 mmHg 94%
    20:00 +24°C° 0 mm 2 mps 759 mmHg 95%
    21:00 +24°C° 0 mm 2 mps 759 mmHg 96%
    22:00 +24°C° 0.1 mm 2 mps 759 mmHg 96%
    23:00 +23°C° 0.1 mm 2 mps 759 mmHg 97%
    Show more